Temp
61 61 61 61 61 61 62 62 62 62 63 63 63 63 60 60 59 57 58 59 59 64 67 63 67 70 70 67 68 67 68 65 62 64 64 64 64 61 56 55 54 53 52 52 52 52 52 51 51 52 53 54 54 53 53 53 52 52 53 53 54 54 54 53 52 53 53 54 54 53 53 53 54 54
61 61 61 61 61 61 61 61 61 62 62 62 62 62 62 60 57 57 56 58 61 61 65 66 65 68 68 68 67 68 68 63 64 65 65 65 65 58 55 54 53 53 53 52 50 50 51 51 52 53 53 53 53 53 52 52 52 52 52 53 53 52 52 52 52 52 53 53 53 53 54 54 54 54
61 60 60 61 60 61 60 61 61 62 62 62 63 62 62 60 58 57 57 56 61 63 59 63 67 67 67 67 66 68 68 66 64 65 64 67 61 58 61 57 56 54 52 51 53 53 51 50 50 51 52 52 52 53 53 52 52 52 52 52 51 51 51 51 51 52 53 53 54 54 53 54 54 54
61 61 60 60 61 61 62 61 61 62 62 62 62 62 61 61 59 59 58 56 57 62 62 63 65 67 63 66 66 67 68 67 61 66 66 66 61 65 66 60 57 55 53 52 51 52 51 50 50 50 51 52 53 53 52 51 51 51 50 50 50 50 50 50 51 52 53 53 53 53 53 53 53 53
61 61 61 61 60 61 61 62 62 62 62 63 62 62 62 61 61 59 57 56 57 61 64 63 63 65 64 65 67 66 65 65 66 64 67 66 65 65 66 66 59 55 53 51 51 51 50 49 52 53 52 51 51 51 50 50 50 50 49 48 47 48 49 50 50 50 51 52 52 52 52 52 52 53
61 60 61 60 60 61 61 61 62 63 63 63 63 62 61 61 60 60 57 57 57 56 61 62 65 64 66 63 68 64 63 63 65 65 65 67 68 67 66 66 65 56 53 52 51 51 50 49 49 49 48 47 48 48 48 47 47 48 48 46 43 46 47 49 49 50 50 51 51 51 51 51 52 52
61 60 60 60 60 60 60 60 60 60 61 63 61 60 61 60 59 60 59 57 56 56 58 62 62 62 63 62 64 66 65 64 65 65 66 66 65 66 65 65 64 56 53 52 52 50 50 50 49 48 48 48 48 48 48 47 47 47 47 46 46 46 46 47 47 48 49 50 50 51 51 51 51 52
61 60 59 59 60 60 59 60 60 61 61 61 61 60 61 61 59 60 60 60 58 58 56 60 62 62 61 63 66 65 65 65 64 65 65 66 65 66 65 65 64 61 54 52 52 52 52 51 50 49 49 49 48 48 47 47 47 46 47 46 46 46 46 46 46 46 47 48 48 49 49 49 50 52
61 60 60 60 61 60 59 59 60 60 58 61 60 60 61 61 61 61 61 60 60 58 57 58 62 62 63 63 64 66 64 62 64 64 62 63 64 64 65 65 64 58 56 56 55 53 52 51 51 50 49 49 49 48 48 47 47 47 47 47 47 46 46 46 46 46 46 46 46 48 49 49 50 51
61 60 61 60 61 60 59 58 58 59 58 59 59 59 59 61 60 59 60 60 60 59 59 59 59 61 60 61 62 64 63 60 60 61 62 62 63 61 61 62 63 64 63 62 61 57 55 54 52 51 50 49 48 48 47 47 48 48 48 48 47 47 46 46 46 45 45 46 46 47 48 48 49 50
61 61 61 60 60 60 60 58 58 58 58 58 59 59 58 60 59 59 60 60 59 59 59 60 60 60 61 61 59 63 63 63 61 58 57 57 61 62 61 60 63 64 62 59 54 55 54 53 56 52 49 50 50 50 49 50 50 50 49 48 47 46 46 45 46 46 46 46 45 45 44 45 47 49
61 61 61 61 60 60 59 58 58 57 57 59 59 59 59 58 58 58 59 59 60 59 58 59 58 59 59 61 61 61 61 58 58 59 57 54 56 58 60 61 60 61 61 60 61 58 57 57 55 52 53 53 51 51 51 52 52 51 48 46 46 46 46 46 46 46 46 46 46 45 45 44 45 47
61 61 61 60 59 56 51 47 50 50 50 56 57 58 58 57 57 58 58 59 59 58 58 58 59 58 58 58 57 56 56 55 54 57 57 56 58 59 58 60 62 60 59 60 59 58 58 56 56 56 56 57 55 55 52 53 52 50 48 47 46 46 46 46 46 46 46 46 46 45 45 45 45 44
60 60 60 58 52 50 49 47 44 43 44 45 52 56 57 56 57 56 56 57 57 57 56 56 56 55 55 56 55 55 56 57 57 55 55 54 57 57 56 58 60 61 60 57 55 56 58 55 55 56 56 57 56 56 56 57 52 50 47 47 46 46 46 46 46 46 46 45 45 45 45 45 45 44
59 60 61 60 55 55 52 52 43 44 42 42 42 43 45 49 54 55 55 55 56 55 55 56 56 55 54 55 56 56 56 56 55 55 55 55 55 53 52 51 56 62 59 57 55 55 57 55 53 54 54 55 55 56 57 50 48 47 46 46 46 46 46 46 45 45 45 45 45 45 44 44 45 44
61 60 60 60 60 59 59 60 57 50 43 43 42 40 41 41 42 43 51 53 54 54 54 54 55 55 54 54 56 55 54 54 54 55 55 55 53 52 52 53 52 58 60 56 53 52 56 55 53 52 53 54 55 55 51 48 47 47 47 47 46 45 45 45 45 45 44 44 44 44 44 44 44 44
61 61 60 60 60 59 53 57 61 61 59 47 43 44 42 41 41 39 38 42 52 55 54 54 54 55 54 54 55 55 54 55 53 54 54 54 54 55 54 54 55 57 60 58 53 51 53 54 51 50 53 55 54 53 51 49 47 47 46 46 45 45 45 45 45 44 44 44 44 44 44 43 43 43
61 60 61 60 60 60 60 60 59 60 60 61 61 60 61 59 51 42 39 38 38 46 55 55 54 55 56 54 55 56 56 53 52 52 52 53 54 54 53 56 58 59 61 56 53 51 53 52 50 50 53 54 53 54 51 47 47 46 46 46 46 45 45 45 44 44 44 43 43 43 43 43 43 43
60 60 60 60 60 60 59 58 53 57 59 60 60 60 60 60 61 61 60 59 59 58 57 57 56 57 57 56 55 56 56 55 55 55 53 55 56 56 59 60 60 60 62 60 54 47 50 52 50 50 52 53 53 55 52 50 47 47 46 46 46 45 45 44 44 44 44 44 44 43 43 42 42 42
61 61 60 61 60 59 58 48 35 44 53 60 60 59 59 61 62 61 56 51 51 55 57 57 57 57 56 49 53 53 54 55 56 56 58 60 57 56 56 54 57 57 60 61 54 48 48 52 48 48 51 52 52 55 56 50 48 47 47 46 45 45 45 45 45 44 44 44 43 43 43 43 42 42
61 60 61 61 60 59 58 44 37 39 39 59 59 59 59 60 61 60 60 47 42 41 41 42 43 42 41 41 42 42 41 48 52 56 56 55 56 54 52 53 54 55 59 60 57 51 48 50 48 46 49 50 51 53 53 53 49 48 47 47 46 45 45 45 45 45 44 44 43 43 43 42 42 42
61 59 51 54 60 58 57 38 35 38 45 59 59 59 58 59 59 59 59 60 60 50 48 45 43 43 42 42 44 45 45 44 48 57 53 55 56 53 53 51 53 56 58 57 57 51 49 50 48 45 47 49 52 52 52 51 51 49 49 47 45 45 45 44 44 44 45 44 43 43 43 42 43 48
60 59 55 49 49 55 47 33 38 36 44 59 59 58 59 57 57 57 58 58 58 58 59 60 61 60 57 61 62 60 49 48 52 59 57 58 56 53 53 53 53 52 54 57 57 50 50 49 48 45 42 41 47 51 50 50 51 51 50 48 47 45 45 45 45 45 45 44 43 43 42 43 43 51
59 59 59 51 38 38 37 38 35 38 36 53 59 59 59 57 54 57 57 57 57 57 58 59 61 61 62 62 63 62 62 61 60 59 59 58 57 55 54 54 53 51 53 58 57 52 54 52 47 46 43 37 37 45 49 47 48 49 48 46 46 45 45 46 47 46 46 45 43 43 43 42 43 52
58 59 60 61 44 37 39 38 36 37 37 39 55 58 58 56 51 48 57 57 51 58 59 60 61 62 62 62 62 62 62 62 61 60 60 60 59 57 55 54 53 53 56 59 52 56 49 51 47 45 44 43 42 42 45 44 45 45 45 45 44 45 46 48 47 49 47 46 43 42 42 43 41 48
60 61 61 62 46 36 39 37 38 36 38 36 54 56 46 39 38 51 56 58 60 60 61 61 60 61 61 61 61 61 61 61 60 60 60 60 60 60 59 57 53 50 53 59 51 57 54 51 49 43 43 40 40 41 40 41 43 43 43 44 44 44 45 44 45 46 48 51 53 47 47 42 43 42
60 62 62 56 39 38 38 38 38 38 36 37 54 45 40 41 37 41 58 59 59 60 60 59 59 59 60 59 60 60 60 60 60 60 61 61 61 61 61 60 60 59 60 61 61 59 56 52 53 45 41 40 37 37 39 37 37 40 40 42 43 44 43 42 41 44 47 50 53 46 44 42 41 42
61 61 61 54 38 38 38 36 37 38 37 50 40 38 39 37 39 54 59 60 60 58 58 58 58 59 60 60 60 59 60 60 60 61 61 61 61 61 61 61 61 63 62 62 62 61 59 52 51 53 46 41 36 34 33 37 37 36 36 39 42 43 42 41 41 44 47 52 53 53 52 50 49 49
61 45 37 35 37 39 37 37 36 38 38 35 38 38 37 40 57 60 61 60 60 58 58 58 58 59 60 60 61 60 60 61 63 62 61 61 61 62 62 61 62 62 62 62 62 62 60 56 51 54 52 47 40 37 36 35 35 36 36 35 36 41 41 40 41 41 44 46 47 50 53 53 52 52
33 37 39 34 34 35 40 49 55 59 59 44 39 38 40 55 60 62 61 61 58 58 58 58 58 59 61 61 61 62 62 62 61 61 59 59 60 60 59 59 60 62 63 63 63 63 61 59 57 55 50 48 42 38 37 34 35 36 36 35 36 41 41 39 40 42 43 43 42 44 48 49 50 53
53 50 48 53 45 45 39 40 41 46 49 52 53 57 58 60 63 62 61 60 59 59 59 59 60 61 62 63 62 62 61 61 61 62 59 59 59 59 59 58 57 59 61 62 63 63 62 60 59 57 49 47 42 38 38 39 36 36 35 37 36 33 36 39 40 41 42 44 42 43 45 48 47 46
57 57 47 46 53 55 56 57 59 60 60 61 59 63 64 64 62 58 52 52 59 61 61 61 61 60 61 60 61 62 61 61 61 61 60 58 58 59 59 57 55 57 58 60 61 61 56 61 59 58 56 50 44 39 40 40 37 36 36 36 37 38 38 37 38 39 42 44 42 40 41 42 41 43
57 56 56 56 56 58 56 59 60 62 63 63 63 62 62 64 64 63 64 62 61 61 60 59 59 58 60 60 61 61 60 59 60 61 60 60 59 60 60 56 56 55 54 56 58 60 61 61 60 59 58 57 44 41 41 41 40 38 36 35 36 36 37 38 38 38 41 42 41 39 38 40 41 40
55 56 55 55 54 57 59 59 57 55 61 61 61 62 53 60 63 62 62 62 62 59 59 59 58 59 56 59 60 60 59 59 60 60 54 59 60 58 57 56 55 56 56 56 57 58 59 59 59 59 58 59 56 49 45 42 40 39 37 37 36 35 36 37 38 39 39 38 39 39 38 38 39 40
49 49 52 53 55 56 59 54 57 57 51 56 51 59 60 62 60 51 61 62 59 58 52 52 56 53 58 56 59 58 58 57 58 59 60 60 59 58 57 54 53 55 56 56 56 58 59 58 57 54 54 55 55 57 47 46 45 39 40 39 38 36 35 36 36 37 38 38 40 38 38 39 38 39
51 52 52 53 56 58 57 56 55 57 58 53 58 58 57 58 58 58 58 60 62 59 57 57 56 57 57 58 56 58 57 54 57 59 57 58 58 57 57 56 54 55 57 57 57 59 58 57 56 52 48 48 47 47 49 44 41 43 39 38 38 36 36 36 36 38 37 37 37 37 35 35 36 38
51 52 55 56 58 58 56 58 59 59 59 60 59 60 59 56 59 62 60 60 61 57 58 53 57 57 57 57 56 54 56 56 53 56 56 58 58 57 54 53 52 55 56 57 58 58 58 56 56 50 49 47 46 45 47 50 43 42 43 39 37 37 35 36 35 35 36 36 36 35 35 35 35 37
50 54 56 57 58 60 60 59 59 58 60 60 60 60 61 62 63 63 64 63 60 58 56 55 57 57 59 57 58 56 55 58 57 53 55 55 55 55 54 53 53 55 56 57 58 58 59 57 55 53 48 45 46 46 45 51 53 48 41 42 39 38 37 36 35 34 35 36 35 36 37 35 35 37
53 54 55 57 58 59 58 58 58 59 60 61 61 61 62 62 63 63 61 59 61 61 61 60 57 58 56 59 58 57 57 57 57 56 55 54 57 56 52 53 52 55 56 54 56 58 58 56 55 54 51 47 46 48 50 50 49 53 43 41 41 40 40 37 35 35 35 34 35 37 38 40 40 39
54 56 57 58 59 60 60 60 60 61 61 61 62 63 63 59 61 61 60 58 60 55 55 58 56 56 58 59 57 56 59 58 55 57 56 56 54 53 52 52 50 51 51 52 51 55 56 55 56 52 50 53 53 53 57 55 56 57 52 40 40 41 40 41 35 35 34 34 35 35 36 38 37 38
56 57 58 59 59 59 59 60 62 62 62 63 63 58 62 63 62 61 61 60 54 56 58 59 58 58 56 58 56 56 56 57 56 57 55 53 53 52 50 46 53 55 52 50 52 52 54 57 55 42 50 56 56 60 56 51 49 51 52 50 38 40 40 41 41 37 35 35 35 35 35 35 36 36
58 58 59 60 60 60 61 61 62 62 62 63 63 62 63 62 60 53 57 51 54 52 56 56 58 58 57 59 60 58 58 57 57 56 55 55 55 53 51 52 54 54 52 51 51 53 58 60 60 60 61 55 56 52 49 48 48 50 51 53 51 39 38 39 38 39 41 38 37 34 35 36 38 35
59 60 60 60 61 62 62 62 63 63 63 64 63 63 60 58 58 58 59 57 55 58 59 60 61 61 61 61 61 60 59 57 57 56 53 53 52 53 54 55 52 52 51 51 55 56 55 59 60 58 56 56 54 53 50 48 50 51 51 52 52 55 48 38 39 39 39 37 37 37 38 36 34 31
61 60 61 62 62 62 62 63 63 64 64 62 61 62 60 60 59 58 57 60 60 60 60 61 61 61 59 61 60 60 60 60 59 56 55 54 53 53 53 53 51 51 53 54 55 56 56 54 56 57 56 55 55 54 50 49 52 52 53 51 51 52 53 55 49 41 39 37 37 36 35 37 37 37
62 61 61 62 63 64 64 64 64 64 64 62 59 61 58 60 58 60 56 55 59 59 58 59 59 60 60 60 61 59 59 54 56 57 57 57 58 56 55 54 55 53 54 54 53 53 55 54 56 55 56 55 55 53 52 51 51 51 53 50 49 52 54 53 53 53 55 52 40 36 37 36 37 35
MSLP
1025.56 1025.60 1025.56 1025.44 1025.56 1025.64 1025.68 1025.72 1025.68 1025.68 1025.48 1025.36 1025.28 1025.08 1025.12 1024.80 1024.32 1024.20 1023.68 1023.88 1023.92 1023.52 1023.52 1023.36 1022.92 1022.96 1022.80 1022.76 1022.60 1022.36 1022.04 1021.84 1021.96 1021.60 1021.16 1020.76 1020.36 1020.08 1019.96 1019.68 1019.48 1019.32 1019.20 1019.00 1018.80 1018.64 1018.48 1018.28 1018.08 1017.80 1017.48 1017.20 1016.92 1016.72 1016.52 1016.28 1016.08 1015.88 1015.72 1015.52 1015.24 1015.04 1014.88 1014.80 1014.80 1014.60 1014.44 1014.28 1014.16 1014.00 1013.76 1013.56 1013.44 1013.24
1025.72 1025.76 1025.72 1025.68 1025.80 1025.96 1025.92 1026.04 1026.00 1025.92 1025.84 1025.64 1025.52 1025.44 1025.40 1025.44 1025.24 1025.04 1024.60 1024.00 1024.00 1023.96 1023.64 1023.48 1023.28 1022.96 1022.92 1022.88 1022.68 1022.36 1021.96 1021.84 1021.84 1021.48 1021.00 1020.60 1020.16 1019.96 1019.60 1019.24 1019.08 1018.92 1018.80 1018.64 1018.52 1018.36 1018.16 1018.00 1017.80 1017.52 1017.20 1016.92 1016.68 1016.44 1016.20 1016.00 1015.84 1015.60 1015.40 1015.20 1015.04 1014.84 1014.76 1014.64 1014.52 1014.40 1014.20 1014.04 1013.92 1013.76 1013.64 1013.48 1013.32 1013.08
1025.88 1025.96 1026.00 1025.96 1026.04 1026.12 1026.20 1026.12 1026.12 1026.08 1025.88 1025.72 1025.60 1025.68 1025.64 1025.88 1025.88 1025.68 1025.16 1024.48 1024.00 1024.24 1024.04 1023.76 1023.56 1023.28 1023.16 1023.00 1022.68 1022.32 1021.96 1021.72 1021.72 1021.24 1020.84 1020.32 1020.00 1019.72 1019.04 1018.80 1018.64 1018.52 1018.44 1018.32 1018.12 1017.96 1017.80 1017.60 1017.40 1017.16 1016.88 1016.60 1016.36 1016.08 1015.84 1015.68 1015.56 1015.36 1015.12 1014.96 1014.88 1014.68 1014.44 1014.36 1014.28 1014.12 1013.92 1013.76 1013.64 1013.52 1013.40 1013.28 1013.16 1013.08
1026.04 1026.08 1026.12 1026.16 1026.12 1026.16 1026.08 1026.16 1026.16 1026.12 1026.12 1026.00 1025.84 1025.80 1025.76 1025.84 1025.96 1025.76 1025.40 1025.08 1024.56 1024.20 1024.16 1023.92 1023.64 1023.48 1023.36 1022.96 1022.52 1022.24 1021.92 1021.72 1021.56 1021.08 1020.52 1020.08 1019.76 1019.24 1018.68 1018.28 1018.16 1018.16 1018.12 1017.92 1017.80 1017.60 1017.32 1017.08 1016.84 1016.64 1016.40 1016.16 1015.92 1015.72 1015.56 1015.40 1015.24 1015.04 1014.88 1014.72 1014.60 1014.44 1014.20 1014.08 1014.00 1013.84 1013.68 1013.52 1013.40 1013.32 1013.20 1013.08 1012.96 1012.92
1026.16 1026.16 1026.20 1026.32 1026.44 1026.36 1026.24 1026.12 1026.12 1026.12 1026.04 1025.96 1025.92 1025.92 1025.72 1025.72 1025.80 1025.88 1025.64 1025.20 1024.72 1024.16 1024.08 1023.88 1023.64 1023.40 1023.28 1022.80 1022.48 1022.16 1021.96 1021.60 1021.24 1020.92 1020.40 1019.96 1019.48 1019.00 1018.52 1017.92 1017.72 1017.84 1017.76 1017.64 1017.48 1017.16 1016.84 1016.60 1016.36 1016.12 1015.96 1015.76 1015.60 1015.40 1015.24 1015.08 1014.92 1014.72 1014.56 1014.40 1014.24 1014.12 1013.96 1013.72 1013.68 1013.60 1013.52 1013.36 1013.20 1013.16 1013.08 1013.00 1012.88 1012.84
1026.36 1026.32 1026.28 1026.44 1026.60 1026.52 1026.48 1026.44 1026.20 1026.08 1025.96 1025.92 1025.88 1025.92 1025.92 1025.84 1025.88 1025.88 1025.80 1025.36 1024.96 1024.64 1024.12 1023.88 1023.52 1023.24 1023.20 1022.96 1022.44 1022.16 1021.96 1021.56 1021.20 1020.72 1020.28 1019.76 1019.32 1018.88 1018.36 1017.88 1017.52 1017.52 1017.48 1017.24 1016.88 1016.52 1016.24 1016.08 1015.96 1015.76 1015.64 1015.52 1015.28 1015.08 1014.88 1014.72 1014.52 1014.36 1014.20 1014.04 1013.96 1013.80 1013.64 1013.44 1013.32 1013.28 1013.20 1013.12 1013.00 1012.92 1012.92 1012.88 1012.80 1012.72
1026.48 1026.48 1026.56 1026.64 1026.68 1026.64 1026.64 1026.60 1026.52 1026.52 1026.36 1026.12 1026.12 1026.16 1026.08 1026.04 1026.00 1025.84 1025.84 1025.64 1025.12 1024.92 1024.36 1023.96 1023.56 1023.32 1023.16 1022.96 1022.44 1022.12 1021.88 1021.56 1021.12 1020.56 1020.08 1019.64 1019.20 1018.80 1018.40 1017.92 1017.48 1017.28 1017.28 1017.00 1016.60 1016.32 1016.12 1015.92 1015.72 1015.56 1015.40 1015.12 1014.88 1014.64 1014.44 1014.24 1014.08 1013.96 1013.84 1013.72 1013.56 1013.44 1013.32 1013.20 1013.04 1013.00 1012.92 1012.84 1012.76 1012.64 1012.64 1012.68 1012.64 1012.56
1026.48 1026.60 1026.72 1026.80 1026.72 1026.68 1026.72 1026.64 1026.56 1026.52 1026.44 1026.28 1026.16 1026.08 1025.96 1025.80 1025.88 1025.76 1025.64 1025.40 1025.28 1024.92 1024.60 1023.96 1023.80 1023.36 1023.16 1022.72 1022.40 1022.04 1021.72 1021.40 1021.04 1020.60 1020.12 1019.72 1019.24 1018.68 1018.28 1017.88 1017.36 1017.00 1016.80 1016.44 1016.08 1015.92 1015.84 1015.68 1015.44 1015.20 1014.92 1014.68 1014.44 1014.20 1013.96 1013.76 1013.68 1013.60 1013.44 1013.32 1013.20 1013.08 1013.00 1012.88 1012.76 1012.68 1012.68 1012.60 1012.52 1012.40 1012.36 1012.44 1012.44 1012.24
1026.64 1026.72 1026.76 1026.80 1026.76 1026.72 1026.76 1026.76 1026.68 1026.72 1026.68 1026.36 1026.28 1026.16 1025.88 1025.72 1025.76 1025.64 1025.44 1025.24 1025.04 1024.88 1024.56 1024.12 1023.68 1023.36 1023.04 1022.76 1022.40 1022.00 1021.64 1021.32 1021.00 1020.52 1020.08 1019.64 1019.08 1018.56 1018.24 1017.72 1017.32 1016.84 1016.32 1016.04 1015.76 1015.76 1015.68 1015.36 1015.04 1014.72 1014.44 1014.24 1013.96 1013.68 1013.48 1013.44 1013.36 1013.20 1013.04 1012.92 1012.84 1012.72 1012.64 1012.56 1012.44 1012.36 1012.32 1012.32 1012.28 1012.16 1011.96 1011.96 1012.04 1012.00
1026.80 1026.84 1026.84 1026.84 1026.84 1026.84 1026.88 1026.96 1026.92 1026.84 1026.76 1026.56 1026.40 1026.36 1026.20 1025.88 1025.80 1025.64 1025.36 1025.16 1025.00 1024.72 1024.32 1024.04 1023.56 1023.24 1023.08 1022.72 1022.40 1022.00 1021.88 1021.48 1020.92 1020.48 1020.12 1019.68 1019.04 1018.52 1017.96 1017.60 1017.20 1016.72 1016.24 1015.88 1015.80 1015.68 1015.40 1015.04 1014.68 1014.28 1014.08 1013.80 1013.52 1013.28 1013.16 1013.04 1012.88 1012.72 1012.60 1012.48 1012.44 1012.36 1012.32 1012.24 1012.16 1012.04 1012.00 1012.00 1011.96 1011.88 1011.76 1011.60 1011.68 1011.76
1026.88 1026.92 1026.96 1027.00 1027.00 1027.00 1027.00 1027.04 1027.04 1026.92 1026.76 1026.60 1026.44 1026.40 1026.28 1026.04 1025.96 1025.56 1025.24 1025.12 1024.80 1024.52 1024.28 1023.80 1023.52 1023.32 1022.96 1022.76 1022.48 1022.12 1022.04 1021.60 1021.20 1020.60 1019.96 1019.52 1019.12 1018.56 1018.00 1017.40 1017.04 1016.56 1016.20 1016.04 1015.88 1015.64 1015.24 1014.80 1014.24 1013.96 1013.76 1013.36 1013.04 1012.88 1012.76 1012.56 1012.40 1012.28 1012.16 1012.16 1012.24 1012.28 1012.24 1012.16 1012.04 1011.84 1011.68 1011.60 1011.60 1011.56 1011.48 1011.32 1011.28 1011.40
1027.00 1027.04 1027.04 1027.04 1027.12 1027.24 1027.32 1027.24 1027.20 1027.16 1026.96 1026.64 1026.48 1026.44 1026.36 1026.20 1026.00 1025.60 1025.28 1025.04 1024.68 1024.44 1024.24 1023.88 1023.60 1023.36 1023.04 1022.68 1022.64 1022.36 1021.96 1021.72 1021.32 1021.12 1020.72 1019.88 1018.88 1018.24 1017.88 1017.56 1017.12 1016.64 1016.40 1015.88 1015.40 1015.00 1014.68 1014.28 1014.12 1013.76 1013.24 1012.88 1012.72 1012.60 1012.32 1012.12 1011.92 1011.88 1012.04 1012.20 1012.16 1012.04 1011.92 1011.76 1011.64 1011.48 1011.28 1011.12 1011.12 1011.16 1011.12 1011.00 1010.84 1010.88
1027.04 1027.08 1027.20 1027.28 1027.52 1027.88 1028.12 1028.08 1027.96 1027.88 1027.84 1027.24 1026.76 1026.64 1026.52 1026.36 1026.08 1025.80 1025.48 1025.00 1024.80 1024.56 1024.28 1024.00 1023.76 1023.48 1023.16 1022.96 1022.92 1022.56 1022.28 1022.16 1021.88 1021.24 1020.80 1020.16 1019.32 1018.60 1017.92 1017.44 1017.24 1017.00 1016.40 1015.80 1015.48 1015.20 1014.88 1014.52 1014.00 1013.52 1013.12 1012.60 1012.44 1012.08 1011.92 1011.56 1011.44 1011.64 1011.72 1011.68 1011.64 1011.56 1011.48 1011.32 1011.20 1011.04 1010.88 1010.68 1010.60 1010.64 1010.68 1010.64 1010.52 1010.40
1027.08 1027.20 1027.36 1027.80 1028.16 1028.24 1028.24 1028.20 1028.16 1028.16 1028.12 1028.00 1027.60 1027.16 1026.88 1026.60 1026.28 1026.00 1025.72 1025.32 1025.12 1024.80 1024.48 1024.28 1024.12 1023.76 1023.52 1023.36 1023.24 1022.96 1022.76 1022.52 1022.08 1021.60 1020.88 1020.12 1019.20 1018.68 1018.24 1017.64 1017.24 1016.88 1016.48 1016.16 1015.72 1015.24 1015.00 1014.60 1013.96 1013.52 1013.00 1012.56 1012.36 1011.92 1011.52 1011.32 1011.56 1011.52 1011.52 1011.48 1011.32 1011.16 1011.00 1010.88 1010.76 1010.60 1010.48 1010.32 1010.12 1010.12 1010.16 1010.20 1010.20 1010.08
1027.12 1027.16 1027.20 1027.40 1027.84 1027.80 1027.88 1027.84 1027.92 1027.96 1028.08 1028.00 1028.00 1027.92 1027.72 1027.44 1027.00 1026.40 1025.96 1025.68 1025.44 1025.20 1024.84 1024.56 1024.32 1024.16 1023.92 1023.72 1023.44 1023.08 1022.96 1022.64 1022.40 1021.80 1021.08 1020.28 1019.64 1019.12 1018.36 1017.52 1016.88 1016.80 1016.52 1015.88 1015.48 1015.04 1014.96 1014.76 1014.08 1013.44 1013.12 1012.72 1012.24 1011.80 1011.40 1011.52 1011.52 1011.44 1011.32 1011.08 1010.84 1010.68 1010.52 1010.36 1010.28 1010.16 1010.04 1009.92 1009.72 1009.60 1009.64 1009.72 1009.76 1009.76
1026.88 1027.04 1027.12 1027.24 1027.32 1027.40 1027.28 1027.04 1027.20 1027.56 1027.68 1027.76 1027.76 1027.76 1027.68 1027.60 1027.52 1027.32 1026.88 1026.36 1025.76 1025.68 1025.36 1024.96 1024.68 1024.44 1024.20 1024.00 1023.52 1023.36 1023.28 1023.00 1022.56 1021.96 1021.24 1020.64 1020.24 1019.44 1018.76 1018.16 1017.60 1016.72 1016.40 1016.16 1015.84 1015.32 1014.88 1014.76 1014.28 1013.80 1013.20 1012.56 1012.16 1011.80 1011.64 1011.44 1011.28 1011.08 1010.80 1010.56 1010.44 1010.32 1010.16 1009.96 1009.76 1009.68 1009.56 1009.48 1009.32 1009.16 1009.12 1009.16 1009.28 1009.36
1026.68 1026.72 1026.88 1027.08 1027.16 1027.40 1027.64 1027.16 1026.80 1026.64 1026.84 1027.16 1027.16 1027.00 1027.32 1027.44 1027.32 1027.24 1027.24 1027.00 1026.60 1026.08 1025.64 1025.32 1024.96 1024.72 1024.64 1024.20 1023.84 1023.80 1023.72 1023.36 1022.76 1022.00 1021.32 1020.96 1020.44 1019.60 1019.04 1018.44 1017.64 1016.80 1016.52 1016.08 1016.08 1015.76 1015.08 1014.76 1014.40 1013.92 1013.08 1012.52 1012.12 1011.72 1011.36 1011.24 1011.00 1010.64 1010.52 1010.40 1010.12 1009.92 1009.64 1009.44 1009.24 1009.08 1009.00 1008.92 1008.84 1008.72 1008.64 1008.68 1008.80 1008.88
1026.76 1026.80 1026.64 1026.68 1026.88 1026.96 1027.00 1027.00 1026.92 1026.68 1026.56 1026.40 1026.28 1026.12 1026.00 1026.16 1026.68 1026.88 1026.84 1026.72 1026.64 1026.40 1025.76 1025.40 1025.20 1024.88 1024.76 1024.52 1024.24 1024.04 1023.80 1023.40 1022.88 1022.24 1021.72 1021.24 1020.32 1019.64 1019.20 1018.40 1017.64 1017.08 1016.48 1016.20 1016.08 1015.52 1015.04 1015.04 1014.48 1013.60 1012.84 1012.52 1011.96 1011.40 1011.00 1010.76 1010.56 1010.48 1010.28 1009.96 1009.64 1009.32 1009.08 1008.88 1008.72 1008.60 1008.44 1008.36 1008.28 1008.24 1008.16 1008.20 1008.32 1008.44
1026.80 1026.88 1026.92 1026.76 1026.76 1026.92 1026.96 1027.24 1027.48 1027.04 1026.56 1026.32 1026.20 1026.00 1025.92 1025.84 1025.68 1025.72 1025.84 1025.88 1025.80 1025.72 1025.60 1025.44 1025.20 1024.92 1024.72 1024.56 1024.40 1024.16 1023.84 1023.56 1023.04 1022.52 1022.00 1021.04 1020.28 1019.72 1018.84 1018.00 1017.64 1017.08 1016.64 1016.24 1016.24 1015.96 1015.32 1015.08 1014.64 1013.80 1012.96 1012.28 1011.76 1011.08 1010.48 1010.36 1010.32 1010.20 1009.96 1009.56 1009.16 1008.88 1008.64 1008.48 1008.28 1008.08 1007.88 1007.76 1007.72 1007.68 1007.72 1007.80 1007.88 1008.00
1026.76 1026.84 1026.84 1026.72 1026.80 1026.96 1027.00 1027.64 1027.84 1027.64 1027.16 1026.32 1026.08 1025.88 1025.84 1025.60 1025.40 1025.52 1025.92 1026.00 1026.00 1025.88 1025.68 1025.48 1025.24 1024.96 1024.80 1024.76 1024.56 1024.28 1023.96 1023.52 1022.92 1022.36 1021.48 1020.64 1020.20 1019.48 1018.68 1018.04 1017.40 1017.04 1016.60 1016.20 1016.44 1016.52 1015.76 1015.28 1015.24 1014.12 1013.24 1012.68 1011.84 1010.92 1010.44 1010.24 1010.08 1009.80 1009.40 1009.08 1008.80 1008.56 1008.28 1008.04 1007.84 1007.60 1007.40 1007.20 1007.12 1007.12 1007.24 1007.36 1007.52 1007.64
1026.68 1026.80 1026.76 1026.64 1026.68 1026.80 1027.04 1027.72 1027.84 1027.68 1027.56 1026.36 1026.00 1025.84 1025.72 1025.48 1025.28 1025.36 1025.44 1025.68 1025.68 1025.64 1025.60 1025.44 1025.24 1025.04 1024.76 1024.48 1024.20 1023.96 1023.76 1023.48 1022.96 1022.16 1021.20 1020.68 1020.24 1019.48 1018.96 1018.24 1017.60 1017.00 1016.60 1016.16 1016.56 1016.64 1015.92 1015.40 1015.32 1014.64 1013.52 1012.80 1011.96 1011.08 1010.64 1010.28 1009.88 1009.44 1009.04 1008.72 1008.48 1008.24 1007.96 1007.68 1007.40 1007.12 1006.84 1006.68 1006.60 1006.68 1006.80 1006.96 1007.16 1007.32
1026.52 1026.84 1027.28 1027.16 1026.76 1026.72 1027.08 1027.76 1027.80 1027.64 1027.32 1026.24 1026.04 1025.84 1025.64 1025.40 1025.28 1025.36 1025.36 1025.16 1025.04 1025.00 1024.88 1024.76 1024.68 1024.48 1024.20 1023.92 1023.56 1023.28 1023.12 1022.84 1022.64 1021.92 1021.56 1020.96 1020.32 1019.80 1019.32 1018.72 1017.88 1017.16 1016.64 1016.56 1016.84 1016.52 1016.00 1015.48 1015.32 1015.04 1014.04 1012.92 1012.04 1011.52 1011.04 1010.56 1009.88 1009.40 1008.96 1008.76 1008.52 1008.08 1007.72 1007.36 1006.92 1006.52 1006.24 1006.12 1006.12 1006.20 1006.40 1006.60 1006.88 1007.00
1026.40 1026.76 1027.20 1027.40 1027.28 1027.04 1027.28 1027.68 1027.76 1027.60 1027.20 1026.24 1026.00 1025.92 1025.56 1025.40 1025.44 1025.64 1025.60 1025.36 1025.16 1024.92 1024.64 1024.28 1024.04 1023.68 1023.44 1023.20 1022.96 1022.72 1022.60 1022.40 1022.08 1021.84 1021.56 1021.00 1020.52 1020.08 1019.48 1018.80 1018.12 1017.48 1016.88 1016.68 1016.80 1016.40 1015.48 1015.44 1015.36 1015.20 1014.16 1013.36 1012.32 1011.92 1011.24 1010.68 1010.16 1009.52 1009.12 1008.84 1008.44 1008.04 1007.60 1007.00 1006.48 1005.96 1005.60 1005.48 1005.56 1005.76 1006.04 1006.28 1006.64 1006.36
1026.36 1026.44 1026.68 1027.20 1027.48 1027.52 1027.64 1027.72 1027.72 1027.60 1027.40 1026.72 1026.08 1025.84 1025.56 1025.68 1025.80 1025.92 1025.72 1025.56 1025.48 1025.12 1024.68 1024.20 1023.80 1023.44 1023.20 1022.96 1022.72 1022.48 1022.24 1022.00 1021.80 1021.64 1021.40 1021.08 1020.72 1020.24 1019.68 1019.08 1018.72 1018.36 1017.60 1016.76 1016.96 1016.56 1015.72 1015.68 1015.64 1015.88 1015.84 1015.16 1013.36 1011.80 1011.36 1011.04 1010.64 1010.12 1009.72 1009.16 1008.52 1007.92 1007.40 1006.76 1006.12 1005.68 1005.20 1004.96 1005.08 1005.32 1005.60 1005.92 1006.20 1005.92
1026.00 1026.12 1026.08 1026.16 1027.08 1027.48 1027.64 1027.72 1027.64 1027.52 1027.36 1027.08 1026.44 1025.88 1025.92 1026.32 1026.60 1026.60 1025.76 1025.32 1025.36 1024.76 1024.24 1023.80 1023.48 1023.20 1022.96 1022.80 1022.56 1022.36 1022.12 1021.84 1021.68 1021.52 1021.28 1020.96 1020.72 1020.32 1019.80 1019.36 1018.96 1018.52 1017.76 1017.12 1017.00 1016.36 1015.96 1015.60 1015.72 1016.00 1015.76 1015.44 1014.76 1013.40 1012.12 1011.80 1011.32 1010.80 1010.24 1009.56 1008.72 1008.04 1007.44 1006.80 1006.32 1005.68 1005.20 1004.76 1004.68 1004.92 1005.28 1005.56 1005.84 1005.68
1025.52 1025.56 1025.64 1025.76 1026.84 1027.32 1027.48 1027.60 1027.52 1027.40 1027.32 1027.16 1026.60 1026.12 1026.48 1026.68 1026.76 1026.48 1025.92 1025.28 1024.76 1024.32 1023.92 1023.64 1023.36 1023.16 1022.92 1022.72 1022.56 1022.40 1022.16 1021.88 1021.72 1021.56 1021.12 1020.76 1020.52 1020.24 1019.92 1019.52 1019.12 1018.56 1017.64 1017.00 1016.80 1016.28 1015.84 1015.40 1015.80 1016.28 1016.00 1015.60 1014.64 1014.04 1012.60 1011.76 1011.60 1011.00 1010.32 1009.64 1009.04 1008.32 1007.80 1007.16 1006.56 1005.92 1005.32 1004.68 1004.28 1004.56 1004.88 1005.24 1005.48 1005.60
1025.40 1025.36 1025.48 1026.12 1026.88 1027.12 1027.32 1027.40 1027.32 1027.24 1027.20 1027.12 1026.36 1026.32 1026.44 1026.60 1026.64 1026.56 1025.48 1024.96 1024.60 1024.20 1024.00 1023.72 1023.40 1023.20 1022.96 1022.80 1022.60 1022.40 1022.20 1022.00 1021.88 1021.56 1021.08 1020.68 1020.32 1020.00 1019.68 1019.40 1019.00 1018.44 1017.76 1017.20 1016.84 1016.32 1016.00 1015.68 1015.48 1015.92 1015.96 1015.80 1015.44 1014.28 1013.60 1012.48 1011.08 1010.52 1010.24 1009.68 1009.08 1008.52 1008.12 1007.64 1006.92 1006.08 1005.28 1004.56 1004.00 1004.12 1004.48 1004.92 1005.24 1005.36
1025.48 1025.48 1025.56 1026.16 1026.80 1027.04 1027.20 1027.16 1027.08 1026.96 1027.04 1026.40 1026.24 1026.44 1026.40 1026.48 1026.52 1025.92 1024.84 1024.40 1024.28 1024.24 1023.84 1023.60 1023.40 1023.20 1023.00 1022.80 1022.60 1022.48 1022.36 1022.20 1021.92 1021.44 1021.04 1020.60 1020.20 1019.72 1019.40 1019.08 1018.64 1018.20 1017.68 1017.24 1016.84 1016.36 1016.00 1015.80 1015.48 1015.08 1015.24 1015.72 1015.84 1015.44 1014.36 1013.04 1012.64 1012.08 1011.20 1010.12 1009.48 1008.68 1008.24 1007.84 1007.08 1006.12 1005.08 1004.20 1003.92 1004.04 1004.28 1004.72 1004.96 1005.20
1025.64 1026.20 1026.52 1026.68 1026.80 1026.88 1026.92 1026.88 1026.88 1026.76 1026.56 1026.40 1026.16 1026.24 1026.28 1026.36 1025.60 1024.64 1024.32 1024.32 1024.24 1024.04 1023.80 1023.56 1023.48 1023.16 1022.96 1022.80 1022.64 1022.56 1022.40 1022.04 1021.44 1021.20 1020.88 1020.60 1020.12 1019.60 1019.20 1018.84 1018.36 1017.88 1017.48 1017.16 1016.80 1016.36 1016.00 1015.64 1015.32 1014.88 1014.72 1015.20 1015.72 1015.72 1015.40 1014.56 1013.48 1012.44 1011.76 1010.92 1009.72 1008.76 1008.48 1008.12 1007.40 1006.52 1005.56 1004.88 1004.40 1003.96 1003.80 1003.88 1004.08 1004.48
1026.80 1026.64 1026.68 1026.80 1026.80 1026.72 1026.72 1026.40 1025.96 1025.40 1025.32 1025.68 1025.88 1025.88 1026.04 1025.60 1024.60 1024.24 1024.20 1024.16 1024.16 1023.96 1023.72 1023.60 1023.40 1023.12 1022.88 1022.68 1022.56 1022.36 1021.96 1021.52 1021.20 1021.08 1020.88 1020.48 1019.92 1019.56 1019.08 1018.52 1018.00 1017.64 1017.32 1017.04 1016.64 1016.32 1015.96 1015.52 1015.16 1014.84 1014.56 1014.36 1015.20 1015.64 1015.28 1014.60 1013.56 1012.88 1012.08 1011.36 1010.60 1009.24 1008.72 1008.36 1007.52 1006.76 1005.92 1005.56 1005.48 1005.00 1004.52 1004.36 1004.28 1004.16
1026.40 1026.52 1026.60 1026.36 1026.44 1026.20 1026.24 1026.16 1025.92 1025.80 1025.60 1025.48 1025.28 1025.04 1024.92 1024.48 1024.00 1023.96 1024.04 1024.16 1024.16 1023.96 1023.76 1023.48 1023.24 1023.04 1022.84 1022.60 1022.24 1021.96 1021.72 1021.40 1021.20 1021.00 1020.80 1020.40 1019.96 1019.60 1019.16 1018.72 1018.08 1017.48 1017.16 1016.92 1016.52 1016.24 1015.92 1015.52 1015.04 1014.60 1014.44 1014.04 1014.56 1015.28 1014.88 1014.52 1014.04 1013.04 1012.24 1011.72 1011.12 1010.64 1009.72 1008.72 1007.88 1007.24 1006.68 1006.16 1006.00 1005.68 1005.24 1004.92 1004.88 1004.84
1025.96 1026.00 1026.28 1026.40 1026.20 1025.96 1025.72 1025.48 1025.24 1024.92 1024.64 1024.36 1024.12 1023.84 1023.68 1023.60 1023.64 1023.92 1024.16 1024.36 1024.08 1023.64 1023.40 1023.24 1023.16 1022.92 1022.76 1022.48 1022.24 1021.80 1021.60 1021.48 1021.20 1020.96 1020.64 1020.44 1019.96 1019.56 1019.08 1018.68 1018.28 1017.64 1017.16 1016.72 1016.32 1016.00 1015.72 1015.44 1015.08 1014.48 1014.00 1013.64 1014.32 1014.76 1014.44 1014.08 1014.08 1013.52 1012.68 1011.96 1011.32 1010.64 1010.04 1009.44 1008.76 1008.00 1007.36 1006.76 1006.44 1006.36 1006.28 1006.04 1005.84 1005.64
1025.72 1025.84 1025.72 1025.44 1025.28 1025.08 1024.84 1024.52 1024.12 1023.76 1023.56 1023.48 1023.44 1023.56 1023.56 1023.28 1023.24 1023.20 1023.12 1023.16 1023.16 1023.16 1023.28 1023.20 1023.16 1023.00 1022.68 1022.48 1022.20 1021.84 1021.64 1021.48 1021.24 1020.84 1020.68 1020.32 1019.88 1019.44 1019.00 1018.80 1018.32 1017.88 1017.44 1016.72 1016.20 1015.80 1015.48 1015.16 1015.00 1014.68 1014.08 1013.40 1014.04 1014.32 1014.28 1013.56 1013.40 1013.36 1013.04 1012.36 1011.72 1011.16 1010.56 1010.00 1009.44 1008.88 1008.12 1007.24 1007.04 1007.12 1006.92 1006.84 1006.68 1006.52
1025.68 1025.36 1025.24 1025.04 1024.80 1024.52 1024.16 1023.92 1023.80 1023.64 1023.44 1023.32 1023.28 1023.16 1023.28 1023.40 1023.08 1023.08 1023.20 1023.08 1022.92 1023.04 1023.28 1023.20 1023.00 1022.88 1022.84 1022.48 1022.08 1021.76 1021.68 1021.44 1021.20 1020.84 1020.64 1020.20 1019.84 1019.44 1018.96 1018.72 1018.48 1018.04 1017.56 1016.88 1016.36 1015.88 1015.44 1015.12 1014.84 1014.40 1014.04 1013.52 1013.36 1013.96 1013.88 1013.60 1013.68 1013.20 1013.12 1012.88 1012.40 1011.72 1011.16 1010.60 1009.96 1009.48 1008.96 1008.52 1007.88 1007.52 1007.52 1007.48 1007.32 1007.08
1025.96 1025.52 1025.12 1024.88 1024.52 1024.24 1023.92 1023.76 1023.72 1023.72 1023.64 1023.56 1023.52 1023.32 1023.08 1022.96 1023.04 1023.16 1023.04 1022.88 1022.92 1023.04 1023.00 1023.00 1022.92 1022.80 1022.60 1022.32 1022.08 1021.92 1021.76 1021.64 1021.40 1020.84 1020.44 1020.24 1019.84 1019.52 1019.16 1018.96 1018.68 1018.20 1017.52 1016.96 1016.52 1016.04 1015.64 1015.24 1014.92 1014.64 1014.20 1013.68 1013.04 1013.04 1013.84 1013.68 1013.40 1013.48 1013.00 1012.92 1012.76 1012.40 1011.76 1011.16 1010.60 1009.96 1009.52 1009.00 1008.44 1008.20 1008.04 1007.84 1007.84 1007.84
1025.40 1025.24 1025.00 1024.64 1024.20 1023.80 1023.64 1023.64 1023.60 1023.56 1023.48 1023.44 1023.28 1023.16 1023.08 1022.88 1022.84 1022.96 1022.84 1022.76 1022.88 1022.80 1022.72 1022.68 1022.68 1022.56 1022.44 1022.28 1022.08 1021.96 1021.76 1021.68 1021.20 1020.72 1020.48 1020.16 1019.72 1019.64 1019.28 1019.20 1018.96 1018.32 1017.60 1017.12 1016.72 1016.20 1015.80 1015.52 1015.20 1015.00 1014.72 1014.24 1013.72 1013.28 1012.76 1013.56 1013.44 1013.32 1013.40 1013.08 1012.92 1012.84 1012.32 1011.64 1011.04 1010.40 1009.96 1009.60 1009.32 1009.08 1008.96 1008.76 1008.60 1008.40
1025.12 1024.68 1024.28 1023.96 1023.68 1023.52 1023.52 1023.44 1023.32 1023.24 1023.16 1023.00 1022.88 1022.76 1022.72 1022.72 1022.64 1022.48 1022.36 1022.68 1022.72 1022.68 1022.60 1022.64 1022.52 1022.36 1022.20 1022.04 1021.88 1021.68 1021.36 1021.16 1020.96 1020.72 1020.40 1019.92 1019.60 1019.56 1019.40 1019.20 1018.96 1018.40 1017.76 1017.28 1016.88 1016.36 1015.96 1015.76 1015.56 1015.28 1015.16 1014.96 1014.40 1013.84 1013.36 1012.76 1013.52 1013.52 1013.32 1013.60 1013.20 1013.08 1012.76 1012.16 1011.52 1010.96 1010.72 1010.56 1010.12 1009.92 1009.84 1009.56 1009.28 1008.84
1024.72 1024.24 1023.84 1023.52 1023.28 1023.08 1023.04 1023.04 1023.04 1023.04 1022.88 1022.68 1022.56 1022.44 1022.40 1022.28 1022.20 1022.16 1022.20 1022.16 1022.08 1022.12 1022.08 1022.04 1021.88 1021.88 1021.76 1021.64 1021.52 1021.28 1021.12 1020.96 1020.72 1020.52 1020.20 1019.92 1019.76 1019.60 1019.44 1019.32 1019.00 1018.52 1017.96 1017.48 1017.04 1016.52 1016.16 1015.96 1015.84 1015.72 1015.60 1015.64 1015.08 1014.40 1013.76 1013.00 1012.44 1013.20 1013.80 1013.48 1013.72 1013.20 1012.88 1012.44 1012.04 1011.80 1011.32 1010.92 1010.88 1010.56 1010.20 1009.88 1009.72 1009.36
1024.20 1023.84 1023.60 1023.28 1023.08 1023.04 1022.96 1022.88 1022.80 1022.72 1022.60 1022.36 1022.24 1022.20 1022.12 1022.00 1021.92 1021.88 1021.92 1021.92 1021.88 1021.84 1021.76 1021.68 1021.64 1021.60 1021.68 1021.52 1021.28 1021.16 1020.96 1020.72 1020.56 1020.28 1020.04 1019.80 1019.68 1019.56 1019.52 1019.40 1019.24 1018.72 1018.20 1017.80 1017.32 1016.72 1016.32 1016.08 1016.00 1015.96 1015.96 1016.00 1015.68 1014.84 1014.20 1013.56 1013.24 1012.92 1013.92 1013.76 1013.68 1013.48 1013.20 1013.04 1012.84 1012.60 1012.20 1011.80 1011.16 1010.76 1010.44 1010.20 1009.92 1009.52
1023.72 1023.40 1023.00 1022.80 1022.68 1022.60 1022.56 1022.52 1022.44 1022.28 1022.16 1022.08 1021.96 1021.80 1021.72 1021.72 1021.72 1021.72 1021.72 1021.72 1021.64 1021.60 1021.60 1021.64 1021.68 1021.68 1021.48 1021.24 1021.04 1020.84 1020.64 1020.40 1020.24 1019.96 1019.72 1019.64 1019.64 1019.72 1019.56 1019.52 1019.44 1018.80 1018.24 1018.12 1017.76 1017.08 1016.60 1016.28 1016.12 1016.12 1015.92 1015.56 1015.12 1014.64 1013.96 1013.72 1013.40 1013.12 1013.24 1014.04 1013.84 1013.76 1013.64 1013.40 1013.36 1013.00 1012.60 1012.28 1011.92 1011.20 1010.64 1010.12 1009.88 1009.80
1022.72 1022.68 1022.52 1022.52 1022.44 1022.40 1022.32 1022.12 1021.96 1021.84 1021.76 1021.64 1021.56 1021.60 1021.68 1021.56 1021.52 1021.48 1021.48 1021.52 1021.64 1021.72 1021.64 1021.52 1021.40 1021.36 1021.20 1021.04 1020.88 1020.76 1020.56 1020.28 1020.04 1019.80 1019.68 1019.68 1019.64 1019.56 1019.56 1019.68 1019.04 1018.32 1018.36 1018.20 1017.84 1017.36 1016.84 1016.44 1016.32 1016.20 1015.84 1015.20 1014.80 1014.36 1013.80 1013.84 1013.48 1013.20 1012.92 1013.32 1014.12 1013.88 1013.76 1013.52 1013.44 1013.64 1013.80 1013.20 1012.56 1012.12 1011.48 1011.04 1010.88 1010.48
1021.88 1021.96 1021.88 1021.84 1021.88 1021.88 1021.80 1021.68 1021.52 1021.44 1021.36 1021.28 1021.20 1021.20 1021.20 1021.24 1021.20 1021.44 1021.64 1021.80 1021.80 1021.80 1021.64 1021.36 1021.08 1020.84 1020.56 1020.36 1020.16 1020.00 1019.96 1019.88 1019.80 1019.72 1019.68 1019.60 1019.40 1019.28 1019.20 1018.92 1018.52 1018.36 1018.48 1018.20 1017.84 1017.36 1016.92 1016.56 1016.12 1015.76 1015.44 1015.08 1014.76 1014.52 1014.36 1014.40 1013.92 1013.36 1013.44 1013.00 1013.20 1013.92 1013.80 1013.72 1013.52 1013.24 1013.40 1013.44 1013.12 1012.92 1012.36 1011.64 1011.28 1011.36
1021.24 1021.28 1021.24 1021.24 1021.32 1021.28 1021.20 1021.16 1021.12 1021.04 1020.96 1020.88 1020.88 1020.88 1020.92 1020.96 1020.96 1021.04 1021.08 1021.00 1020.96 1020.88 1020.72 1020.56 1020.36 1020.20 1020.04 1019.96 1019.84 1019.80 1019.72 1019.60 1019.52 1019.52 1019.52 1019.52 1019.40 1019.20 1018.92 1018.64 1018.60 1018.60 1018.40 1018.12 1017.56 1017.20 1016.96 1016.60 1016.20 1015.84 1015.40 1015.04 1014.96 1014.80 1014.56 1014.60 1013.96 1013.56 1013.28 1013.16 1013.00 1012.60 1013.24 1013.60 1013.28 1012.96 1012.88 1013.12 1013.16 1013.04 1012.92 1012.72 1012.24 1012.20
1020.56 1020.76 1020.76 1020.72 1020.72 1020.76 1020.80 1020.76 1020.72 1020.60 1020.56 1020.52 1020.56 1020.60 1020.64 1020.72 1020.72 1020.80 1020.76 1020.64 1020.52 1020.36 1020.24 1020.16 1020.04 1019.96 1019.96 1019.84 1019.68 1019.60 1019.48 1019.28 1019.24 1019.28 1019.28 1019.16 1019.12 1019.08 1018.88 1018.72 1018.68 1018.52 1018.32 1017.84 1017.40 1017.12 1016.84 1016.64 1016.32 1015.92 1015.52 1015.16 1015.04 1014.76 1014.72 1014.44 1013.92 1013.56 1013.28 1013.44 1013.12 1012.80 1012.40 1012.28 1012.68 1012.64 1012.48 1012.64 1012.76 1012.80 1012.84 1012.68 1012.52 1012.48
1020.16 1020.24 1020.28 1020.20 1020.16 1020.20 1020.20 1020.20 1020.20 1020.20 1020.20 1020.20 1020.28 1020.32 1020.40 1020.44 1020.44 1020.36 1020.28 1020.32 1020.28 1020.24 1020.24 1020.16 1020.00 1019.84 1019.68 1019.56 1019.44 1019.28 1019.16 1019.20 1019.24 1019.08 1018.92 1018.68 1018.40 1018.32 1018.28 1018.28 1018.08 1017.92 1017.76 1017.60 1017.56 1017.16 1016.84 1016.76 1016.28 1015.88 1015.68 1015.32 1015.04 1014.88 1014.68 1014.52 1014.20 1013.56 1013.24 1013.24 1013.16 1012.72 1012.32 1012.32 1012.00 1011.52 1011.12 1011.52 1012.40 1012.44 1012.40 1012.44 1012.48 1012.32
Wind_Speed
7 7 8 7 7 6 6 6 5 5 5 5 5 6 7 6 5 5 4 5 6 8 9 9 8 10 11 10 10 10 10 9 12 13 12 12 12 14 18 21 19 17 14 14 14 15 16 17 18 21 23 23 23 22 22 21 20 20 20 20 21 21 20 20 17 18 18 18 18 17 16 16 16 15
7 7 7 7 7 6 6 6 5 4 4 5 5 6 6 6 6 5 5 4 6 8 8 8 9 10 11 10 10 9 10 10 13 14 13 13 13 18 21 19 14 12 12 12 12 13 15 17 20 23 24 24 23 24 23 23 22 22 22 21 21 21 20 19 19 18 18 18 17 17 17 16 16 16
6 7 8 7 6 6 5 5 5 4 4 4 4 4 5 6 5 5 4 5 5 6 8 8 9 10 12 11 10 9 10 11 14 14 14 14 16 19 17 15 13 11 9 9 13 14 15 17 19 20 22 24 23 25 26 24 23 24 24 23 20 21 22 20 20 19 19 19 18 18 17 17 16 16
6 7 7 6 5 4 4 4 4 4 5 4 4 4 3 4 5 5 4 4 6 5 7 8 8 10 11 11 10 11 10 11 14 14 14 15 17 14 14 16 15 10 9 12 11 15 17 18 18 19 20 21 22 23 24 22 21 22 20 19 20 20 22 21 20 21 21 20 19 19 18 18 17 16
7 7 7 7 6 5 4 4 4 4 4 3 4 4 3 4 3 5 5 6 6 6 6 7 8 8 10 10 10 12 12 12 12 14 14 15 14 14 14 15 16 11 12 10 13 17 18 17 19 20 20 19 20 20 19 19 19 19 18 17 17 16 20 22 20 20 20 20 20 19 18 18 18 16
5 6 7 7 6 5 5 5 5 4 4 4 4 4 4 4 4 4 5 5 6 8 7 8 8 8 9 10 11 12 12 13 14 15 14 13 14 14 14 14 14 14 10 14 17 17 16 15 15 15 16 15 16 16 17 17 16 17 17 16 15 15 17 20 21 19 18 19 20 19 18 18 17 17
6 6 5 5 4 3 4 4 4 4 3 3 4 3 3 3 4 4 4 5 7 8 8 8 9 9 9 10 11 12 11 12 14 15 14 15 14 13 14 15 13 14 16 20 19 16 14 14 14 13 13 15 16 16 16 16 16 16 15 15 15 15 16 16 19 18 19 18 19 19 19 18 18 18
5 6 5 4 4 4 4 4 4 4 3 3 3 3 2 2 4 3 4 4 5 7 8 8 9 9 10 9 11 10 11 13 13 13 14 15 15 15 14 15 14 15 16 15 16 14 16 17 16 17 17 17 16 16 16 16 15 15 14 14 14 14 14 16 16 17 16 18 18 19 19 18 18 19
5 5 5 5 4 4 4 4 3 4 4 3 4 4 3 4 4 4 4 5 6 7 8 8 7 8 9 9 10 11 13 13 13 13 15 15 16 15 15 13 13 17 16 16 17 17 18 19 20 19 16 16 17 18 17 14 13 14 14 14 13 13 14 14 15 16 15 14 14 18 20 19 18 19
5 4 4 4 4 4 4 4 3 3 4 3 4 5 5 5 5 5 5 5 6 7 7 8 8 8 9 10 9 12 13 13 14 14 14 15 15 15 15 13 12 12 13 13 15 17 19 21 20 18 18 18 18 16 13 12 13 14 14 14 13 13 12 12 13 14 14 14 14 15 18 20 18 17
5 4 4 4 4 4 4 4 4 4 3 3 4 5 5 5 6 5 5 6 6 7 8 7 8 9 8 9 11 12 12 13 14 16 16 15 13 14 15 15 12 12 14 17 18 19 18 18 18 18 18 18 16 13 15 16 14 12 12 11 10 8 9 10 11 13 15 16 16 14 15 17 18 17
4 4 4 4 5 5 5 5 5 5 4 3 4 5 5 5 6 6 6 6 6 7 7 8 9 9 9 9 10 11 12 13 13 13 14 17 17 16 15 14 14 13 15 17 18 18 18 19 20 20 19 18 16 16 16 16 15 12 7 7 9 12 13 14 15 16 18 18 18 17 15 16 17 18
4 4 4 4 5 5 5 5 4 4 5 5 4 5 5 5 6 6 6 6 7 7 7 8 8 9 9 10 11 12 12 14 15 16 15 15 15 16 15 14 11 12 15 16 17 18 19 19 19 18 17 18 19 18 16 15 11 12 16 18 17 17 17 17 17 17 18 19 19 18 17 16 17 17
4 4 5 5 6 6 6 5 3 2 1 4 5 5 5 5 5 5 6 6 7 8 8 8 9 10 10 11 12 11 13 13 14 15 15 16 16 16 14 12 11 12 15 16 17 17 16 18 19 18 19 17 17 15 15 14 16 19 18 16 16 17 16 16 17 18 18 18 19 19 18 17 17 17
5 4 4 5 7 8 9 7 8 6 6 3 3 4 5 5 5 6 7 7 7 8 8 8 9 9 11 11 11 11 13 13 14 14 15 15 15 15 17 17 13 11 17 18 19 19 18 18 19 19 18 17 17 17 16 19 18 15 14 17 18 17 17 16 16 16 17 18 19 19 19 18 17 17
4 4 3 3 2 3 3 1 7 9 8 8 8 9 7 7 5 6 4 5 6 8 7 8 9 9 10 11 11 11 12 13 14 14 14 14 15 16 16 15 16 15 17 17 17 19 17 16 19 18 17 18 17 17 18 18 17 20 22 20 17 16 16 16 16 16 16 17 18 19 19 18 17 16
3 4 4 3 2 3 7 7 2 1 5 10 10 11 12 10 10 10 10 9 3 6 6 8 9 9 10 11 11 12 13 13 14 14 14 14 14 15 16 15 16 16 16 18 19 19 18 19 18 19 18 18 18 17 17 17 20 21 17 14 15 16 17 17 18 17 16 16 17 18 19 18 17 16
3 3 3 3 3 2 2 3 2 1 2 2 1 0 2 3 11 12 11 11 11 9 5 7 8 9 9 9 10 11 12 12 13 14 14 15 15 16 16 17 15 15 14 16 17 18 19 18 19 20 19 18 17 17 17 17 15 12 14 18 19 19 19 18 18 17 17 17 17 17 18 18 17 16
3 2 2 1 2 3 2 4 4 5 3 2 1 2 2 3 3 5 6 7 6 5 5 6 7 8 8 8 10 10 10 11 12 13 15 15 15 15 15 13 13 13 12 16 16 18 19 18 19 19 19 19 18 17 18 16 15 17 18 19 19 18 17 16 16 17 17 17 17 17 17 17 16 15
4 4 3 3 2 2 3 4 2 6 7 3 2 2 2 2 2 3 4 1 2 3 5 6 7 7 8 10 10 10 10 10 12 13 12 12 13 14 14 14 14 13 12 15 17 16 18 17 18 20 19 18 18 18 16 19 20 19 18 16 14 14 16 16 16 16 16 16 16 16 15 15 15 14
4 4 4 3 2 3 3 4 3 8 9 4 3 3 3 3 3 5 2 9 11 10 11 12 13 15 15 15 15 15 15 11 11 11 12 13 14 14 15 14 15 14 13 14 18 17 17 18 17 18 18 19 18 17 18 18 20 20 19 16 17 19 18 17 17 17 16 15 14 14 13 14 13 13
4 3 5 6 2 2 3 5 4 7 8 3 3 3 4 4 4 5 6 6 5 5 8 10 12 14 14 13 13 11 9 11 10 11 12 14 13 13 14 15 15 14 12 13 17 17 16 19 17 17 18 17 15 16 17 19 18 19 18 19 20 19 19 20 20 19 17 15 13 13 12 12 11 11
4 5 5 4 5 4 5 3 4 6 8 4 3 3 3 4 5 6 7 7 8 9 10 9 10 9 9 10 11 11 11 10 10 11 11 12 12 13 14 14 14 13 12 13 19 17 17 18 16 17 18 17 14 14 18 18 17 17 17 18 18 19 20 20 19 18 17 14 13 13 12 11 11 10
6 6 6 6 4 2 3 3 5 6 6 6 3 3 3 4 5 7 7 6 8 9 9 9 9 9 9 9 9 11 11 11 12 12 11 11 12 12 13 13 13 13 13 14 18 17 15 16 16 15 14 16 18 20 18 18 18 19 18 18 16 18 18 17 14 17 16 12 12 13 12 12 13 9
6 6 6 6 9 7 5 5 5 5 6 7 5 2 4 4 4 7 7 8 8 8 9 8 8 8 9 9 9 10 11 11 11 12 12 11 11 12 12 13 13 13 13 14 17 15 12 15 16 15 15 15 16 19 18 15 13 16 18 17 17 16 13 13 12 12 15 13 12 13 13 13 17 13
6 6 6 5 9 8 7 6 6 5 6 6 6 2 3 1 4 6 8 7 7 7 8 8 8 8 9 9 9 10 10 11 12 12 12 12 12 11 11 12 13 12 14 16 18 16 15 14 15 13 16 16 18 18 20 16 11 15 18 16 16 15 12 13 13 13 11 10 6 9 11 16 15 18
5 5 5 6 9 8 6 6 5 6 5 6 6 3 4 5 5 7 6 6 6 7 8 8 8 8 9 9 9 10 10 10 12 12 12 14 13 12 11 11 11 11 13 14 15 16 15 13 15 9 12 13 14 16 16 19 17 15 14 18 17 12 10 11 13 13 11 9 8 10 13 14 16 15
5 5 5 5 9 6 6 6 6 6 6 6 2 3 5 6 7 7 6 5 6 7 7 8 8 8 8 9 9 10 10 10 11 11 12 13 14 13 12 12 12 11 13 13 13 15 15 13 13 13 9 10 12 14 17 15 13 13 15 14 12 11 10 11 11 12 12 8 7 3 6 6 9 11
2 6 7 6 4 5 6 7 6 7 10 12 11 9 8 7 7 5 5 5 6 7 7 7 8 8 8 8 9 9 10 11 11 10 10 12 13 13 13 12 11 11 9 10 12 13 15 14 12 15 14 9 8 10 12 15 14 14 14 14 16 14 11 13 11 11 10 10 8 4 2 5 8 8
5 2 3 3 4 7 7 6 6 7 3 9 11 11 9 7 6 4 5 5 6 7 7 7 7 7 8 8 9 10 10 11 12 11 11 11 11 12 12 13 12 12 11 12 12 13 15 15 15 14 14 11 3 5 9 12 14 13 13 13 14 11 11 13 12 10 9 9 9 9 8 8 4 2
6 4 5 4 3 6 4 6 7 8 5 6 8 9 9 8 4 3 4 5 6 6 6 6 7 7 8 8 9 10 11 12 12 12 11 11 12 12 12 12 13 13 12 12 11 12 13 15 16 15 12 10 2 3 7 7 9 15 13 12 12 11 13 12 12 14 11 9 8 9 11 10 9 10
7 7 6 5 7 7 8 7 8 8 8 7 6 4 3 4 4 4 7 9 7 5 4 6 6 7 7 8 9 10 11 11 12 12 11 11 12 12 12 12 12 14 13 12 12 13 13 13 15 16 14 8 2 3 5 4 8 15 14 13 13 11 12 12 12 13 13 9 10 11 10 11 11 12
7 6 6 7 8 8 8 7 7 6 5 5 4 4 5 4 4 4 4 4 5 4 5 6 6 7 8 8 9 10 10 11 11 11 11 12 13 13 12 12 14 14 14 14 13 13 13 14 15 15 15 12 3 2 3 9 8 6 9 13 13 13 14 12 10 12 15 12 10 8 9 11 11 10
5 7 6 7 6 8 7 5 5 4 5 4 4 4 2 4 5 4 4 5 4 3 5 6 5 7 6 8 8 10 10 10 11 11 11 12 13 14 14 13 13 13 13 13 14 14 14 14 15 15 14 13 1 4 4 5 8 9 8 10 11 13 13 13 12 13 14 13 10 10 12 13 13 12
6 5 5 5 5 5 7 4 4 4 4 4 3 5 4 4 4 3 5 5 4 4 3 3 5 5 7 7 8 9 10 10 11 10 10 10 12 12 13 12 13 13 13 14 14 13 14 14 14 14 14 13 13 7 10 8 5 7 9 11 15 15 13 12 10 11 13 12 11 11 10 13 14 14
5 6 6 6 5 6 5 4 6 4 4 4 5 4 4 3 3 3 4 3 5 3 4 4 4 5 5 8 7 9 10 9 10 10 10 10 11 10 11 11 12 13 13 13 14 13 13 13 14 14 14 13 12 14 9 11 13 5 9 11 11 14 11 11 11 12 12 11 12 12 12 11 10 11
6 6 8 8 8 7 6 7 7 7 7 7 6 5 4 3 4 6 4 3 6 4 4 4 5 5 5 6 8 6 7 8 8 8 8 10 10 10 10 10 11 12 13 13 13 13 13 13 14 12 13 13 14 14 14 8 11 14 6 7 9 9 11 13 10 10 8 11 9 11 10 9 10 10
7 8 8 8 8 7 7 6 6 7 7 7 7 6 6 6 6 6 6 6 6 4 4 4 4 5 6 7 7 7 7 7 8 7 7 8 7 8 9 8 9 11 12 13 13 12 12 12 13 13 12 12 14 15 14 13 10 9 11 6 7 9 11 9 11 14 12 8 10 10 9 10 9 9
8 8 9 9 8 7 7 7 7 6 7 7 6 6 6 6 6 6 5 6 6 5 6 4 5 5 7 9 8 7 7 7 7 8 7 7 8 10 8 7 9 10 11 11 12 12 12 12 13 12 11 10 12 13 12 12 12 10 8 11 5 7 9 7 9 9 10 12 11 8 4 3 4 11
10 10 9 8 8 7 7 7 7 7 7 6 6 6 6 4 6 6 6 6 6 4 4 5 5 7 6 7 7 6 7 9 7 7 7 7 6 8 7 7 8 8 8 10 10 12 12 11 12 12 11 8 8 10 9 8 6 10 5 8 12 9 5 6 7 9 10 9 9 7 7 6 9 9
10 10 9 9 8 8 8 8 7 7 7 6 6 6 7 7 7 7 5 5 5 5 6 6 6 7 7 7 6 6 6 7 7 7 7 6 6 6 6 8 7 7 8 8 10 10 10 12 12 11 10 8 9 10 7 9 10 10 12 5 8 10 11 8 6 7 8 9 9 8 8 8 7 9
9 9 9 8 8 8 8 9 8 7 7 7 7 6 7 6 5 5 5 5 7 5 5 7 7 6 6 6 5 5 6 6 7 7 6 6 6 6 6 6 7 7 7 8 8 8 11 12 12 11 11 8 9 11 10 11 10 10 9 10 3 9 10 12 14 13 9 6 9 10 6 5 5 8
9 9 9 8 8 8 8 8 8 8 8 7 7 7 5 5 5 5 5 6 6 6 6 6 6 6 5 5 6 6 7 6 6 6 6 6 6 6 6 6 6 6 6 7 8 7 8 10 11 10 8 8 9 9 10 10 10 8 9 9 9 8 4 10 10 13 13 10 8 6 6 4 4 7
9 9 8 8 8 9 9 9 9 8 8 7 5 6 5 5 6 6 6 6 6 6 6 6 6 6 6 7 6 6 6 6 6 6 6 6 6 5 5 6 6 6 6 7 7 7 7 7 7 8 9 9 9 9 10 10 9 8 7 8 8 7 9 5 3 11 12 10 8 8 6 6 7 8
9 9 8 9 9 9 9 9 9 8 8 6 5 5 5 5 6 6 6 6 7 7 7 7 7 7 7 7 7 7 6 7 7 6 6 6 5 5 5 5 6 6 6 6 7 7 7 7 7 6 7 7 8 8 8 8 9 7 8 8 8 8 8 6 8 9 7 3 5 7 8 6 5 4
Wind_Direction
82 79 74 75 73 66 62 58 55 49 45 46 40 36 29 9 13 14 10 35 356 10 2 348 355 354 349 344 340 331 329 344 343 325 319 319 316 320 316 305 299 293 288 288 300 300 305 303 309 312 313 313 313 313 311 311 308 308 306 307 303 304 304 305 305 302 305 304 307 305 308 307 313 317
85 81 79 76 75 66 66 65 57 59 53 49 46 43 38 24 24 11 0 11 19 348 353 353 342 344 345 340 332 326 324 337 331 325 320 319 319 317 303 296 295 292 291 298 298 303 307 309 309 310 310 310 310 311 310 309 309 307 305 302 304 302 301 299 299 297 297 299 298 301 299 301 305 312
90 88 85 82 81 80 74 72 68 57 50 48 52 47 43 38 21 1 346 342 25 355 340 343 339 335 335 331 323 323 323 331 326 322 322 318 320 305 307 310 309 302 305 301 307 309 307 306 302 298 297 299 304 309 309 308 307 306 304 303 301 300 298 298 296 294 292 293 294 294 297 297 300 302
92 89 84 76 82 86 89 76 69 68 58 46 42 40 38 41 17 354 341 338 339 354 339 331 328 333 325 322 326 328 327 327 321 325 319 322 318 318 322 317 316 321 315 306 302 303 304 297 296 294 291 297 301 305 305 303 298 297 298 294 294 293 295 294 294 292 291 290 290 289 291 293 293 295
91 89 90 89 84 78 73 76 77 63 62 63 56 39 33 30 20 3 344 340 335 345 343 327 329 328 327 325 331 330 330 327 329 325 325 324 322 322 322 321 322 332 318 308 306 306 300 296 299 299 298 296 300 300 297 294 293 292 291 290 286 284 287 292 291 291 290 289 287 286 284 285 287 285
95 93 91 89 81 71 71 62 55 50 57 54 46 47 25 27 8 6 337 337 333 334 335 331 328 328 337 323 332 333 331 329 328 326 327 324 327 325 323 322 326 326 319 315 306 298 296 294 291 292 294 295 294 295 293 291 288 286 288 287 284 279 281 285 289 288 288 286 286 284 282 280 279 280
106 105 100 94 89 86 82 74 68 60 47 39 48 32 25 14 356 348 335 326 335 329 328 330 329 333 331 327 331 333 331 329 326 326 329 330 326 325 325 324 322 329 333 317 306 302 303 309 312 309 305 301 299 294 292 288 285 284 286 285 282 282 280 281 284 285 285 284 283 283 282 280 278 278
110 104 102 96 96 90 79 67 68 56 42 47 36 21 14 10 1 342 325 330 319 321 319 333 330 332 327 331 330 331 332 333 330 329 326 326 324 324 324 325 327 327 308 296 305 330 341 336 328 322 312 305 298 292 286 285 284 286 285 283 280 280 279 279 281 283 280 280 280 279 280 279 277 277
110 106 94 93 89 83 80 72 62 51 35 33 32 11 10 6 0 340 333 331 328 321 322 324 327 327 329 328 329 336 337 334 330 329 328 328 326 325 327 324 323 315 317 325 342 348 337 328 325 314 307 305 301 293 288 287 285 278 278 278 277 276 277 276 278 280 281 279 273 274 275 274 273 273
110 105 98 91 83 77 71 64 51 42 33 27 21 16 2 360 352 338 335 333 330 325 328 328 329 337 335 333 335 342 339 334 332 331 330 327 326 327 327 329 329 329 330 334 338 336 333 330 322 321 324 314 302 297 288 279 276 279 277 276 271 269 268 272 273 278 281 281 277 273 274 276 272 270
111 104 96 88 78 70 69 61 41 25 26 20 18 15 2 356 347 341 345 339 335 337 336 334 338 335 338 336 337 342 338 336 336 333 332 329 331 329 330 331 333 333 335 333 334 334 329 324 324 329 319 311 309 318 316 304 298 290 279 272 282 291 291 286 279 278 281 283 280 273 270 269 269 263
119 109 101 87 74 68 55 46 45 28 12 6 19 15 4 355 348 348 347 345 345 346 343 342 342 341 336 341 341 336 338 340 337 340 332 328 330 332 332 333 334 337 336 337 338 339 336 337 333 327 324 321 328 319 309 312 303 300 345 344 309 294 286 284 283 281 280 280 278 275 269 266 265 262
129 114 92 80 80 79 72 47 37 20 340 352 13 13 6 357 354 351 348 351 351 349 346 346 345 339 341 345 343 341 347 345 339 332 331 325 327 329 328 332 335 336 335 337 339 337 339 332 332 331 328 329 326 319 313 305 308 346 330 316 310 301 292 286 282 278 275 273 274 273 270 265 263 262
134 124 108 103 113 141 153 149 159 176 301 314 343 3 6 359 358 358 354 357 357 350 349 351 343 342 341 345 343 341 342 336 332 330 331 329 330 329 330 327 338 334 340 334 331 334 338 333 329 330 330 330 327 323 321 325 333 319 310 302 297 292 285 280 277 276 272 270 270 270 268 264 259 259
149 154 137 135 173 183 176 166 168 174 202 220 246 261 293 332 351 3 360 3 360 353 347 347 345 341 338 341 340 343 339 337 333 330 329 328 331 334 335 335 333 346 342 341 337 337 339 333 328 330 330 328 326 323 322 327 313 308 307 302 296 292 290 286 280 274 272 268 267 267 265 262 257 255
159 152 147 122 93 39 22 331 168 180 185 198 209 210 214 214 250 296 343 353 2 353 344 341 343 339 342 333 339 342 337 335 326 328 327 332 331 331 332 332 331 329 341 338 336 333 340 336 331 328 328 328 327 324 320 320 327 318 306 302 300 293 289 286 281 275 269 266 265 264 263 260 254 249
166 168 163 154 136 118 221 243 29 24 171 195 214 223 196 205 199 202 222 244 301 337 329 335 333 345 336 333 339 337 332 324 324 326 329 331 327 328 327 328 323 331 336 340 340 334 334 338 332 327 328 330 328 322 319 320 305 298 299 303 302 294 286 281 278 273 267 261 260 260 259 257 251 244
169 188 186 167 158 138 114 42 341 3 346 2 20 253 91 158 187 198 203 208 220 236 312 331 332 336 338 334 330 332 326 327 327 326 324 325 326 329 326 320 325 331 340 346 339 332 340 338 332 330 331 331 327 325 322 305 302 318 323 316 306 296 288 282 279 275 268 261 256 255 255 253 249 242
173 180 187 193 145 143 88 43 354 323 332 352 11 23 33 47 49 47 36 22 13 4 343 331 331 329 336 332 328 324 327 325 321 319 315 316 327 321 317 320 330 328 338 347 345 336 336 338 335 331 332 333 330 331 326 333 339 331 316 304 299 298 294 287 280 275 269 262 255 250 249 247 245 240
188 198 205 194 157 152 121 107 278 290 304 310 9 25 17 32 57 60 112 169 237 275 313 319 316 319 306 297 292 292 296 309 319 316 310 326 330 328 333 335 337 338 341 354 356 339 332 341 337 329 329 330 332 334 334 335 331 322 313 307 309 313 309 300 291 284 275 263 253 247 244 242 239 234
197 206 215 211 177 177 127 128 258 271 282 297 4 12 9 23 26 25 57 191 206 225 241 252 261 262 266 266 267 269 270 267 295 314 329 340 337 336 337 337 338 342 341 356 355 340 334 340 336 328 328 332 331 335 337 335 330 327 325 331 338 329 319 311 301 291 281 266 251 242 237 236 233 225
203 141 45 313 241 192 133 142 237 272 277 302 7 359 352 16 15 17 2 351 346 312 279 249 238 244 250 260 268 272 279 293 291 338 336 337 334 338 338 336 337 335 345 359 355 339 340 337 338 334 330 329 339 339 339 335 334 334 335 336 331 324 319 312 302 290 279 261 244 236 231 230 222 222
218 176 187 233 320 5 98 148 243 269 289 309 13 341 343 359 16 8 348 346 337 333 329 333 336 331 333 336 340 342 330 319 329 343 336 335 339 336 335 334 335 336 345 357 353 342 342 345 342 342 337 336 331 341 340 341 338 338 338 333 329 324 319 312 300 288 278 260 234 226 221 219 207 230
215 204 190 162 189 157 159 231 237 259 281 308 345 336 354 354 4 346 328 334 324 315 314 320 326 332 338 342 339 345 343 345 347 343 342 337 334 332 331 334 337 336 335 347 350 344 342 347 340 344 342 336 334 336 340 342 341 339 337 332 330 327 321 317 322 325 307 264 232 217 210 202 203 225
208 207 208 190 159 194 199 224 227 246 251 282 300 325 3 359 345 308 312 321 298 303 314 323 330 336 339 342 344 345 345 345 345 340 338 338 333 329 330 332 331 329 331 343 342 339 339 344 344 341 339 339 330 331 333 333 333 339 336 332 330 329 325 329 329 322 319 289 230 213 203 200 196 225
217 209 207 179 154 183 201 219 224 234 239 251 266 49 52 350 294 290 302 298 315 318 325 332 329 337 336 341 342 344 342 342 341 334 333 336 335 328 327 329 328 327 331 341 341 344 341 345 349 342 338 336 331 332 331 332 325 334 335 337 336 332 330 329 327 322 313 304 272 202 203 196 196 211
225 214 206 122 140 171 198 224 225 239 244 234 248 215 215 237 257 261 283 312 307 324 327 323 333 333 338 338 339 343 342 339 335 329 329 329 330 328 327 328 324 321 324 332 340 345 347 341 345 342 330 328 325 328 335 337 332 334 335 342 339 335 335 329 327 323 313 293 293 183 188 183 194 202
232 215 212 127 143 175 203 227 232 239 231 262 358 211 231 246 253 264 291 309 330 321 320 330 334 337 337 336 338 341 335 332 323 322 326 326 327 331 332 329 325 327 326 332 336 344 347 344 340 340 339 334 328 331 330 326 322 329 330 329 332 339 345 337 327 326 325 311 282 179 175 179 196 198
245 57 67 105 174 203 218 236 243 241 236 241 252 255 253 248 263 269 320 324 327 322 329 334 333 332 339 337 336 330 325 326 337 335 331 327 325 331 333 331 328 331 334 338 335 343 345 345 339 338 341 335 329 327 337 324 321 331 334 331 340 344 350 344 338 330 340 359 349 284 253 191 179 197
357 6 354 316 259 238 232 231 228 242 215 205 224 232 228 248 259 304 315 328 318 325 326 330 331 336 334 336 331 328 339 347 352 344 334 330 334 336 336 336 341 339 343 341 339 345 345 344 342 342 340 342 352 326 332 332 333 331 335 338 332 325 353 347 346 344 345 9 3 8 23 18 26 182
242 212 229 263 278 292 298 273 293 294 271 227 218 228 221 233 261 285 319 325 317 311 316 322 330 327 329 325 332 348 349 352 352 349 336 335 335 336 336 336 339 341 344 343 342 347 345 345 344 342 339 332 347 344 336 340 337 343 339 341 340 342 335 337 354 1 349 3 11 18 23 21 17 17
225 226 203 226 239 234 231 229 231 230 231 234 242 253 272 280 269 253 232 238 254 265 307 319 317 325 327 333 338 342 348 349 348 349 341 338 337 338 338 341 343 342 340 342 343 346 345 348 346 344 339 339 357 321 324 341 353 354 343 346 346 346 351 352 352 1 352 0 23 25 25 23 19 15
215 226 233 231 229 231 233 239 243 239 234 240 245 243 256 270 291 291 318 314 310 325 317 319 326 321 327 330 332 342 343 342 338 344 338 342 348 348 350 347 346 345 340 343 346 345 347 347 347 346 344 349 142 21 338 358 357 341 345 352 351 353 355 350 353 360 3 8 24 20 23 25 24 13
245 227 231 235 233 236 237 236 241 249 255 262 263 271 268 270 269 300 298 284 291 330 315 308 308 320 319 317 331 339 338 333 333 335 334 344 351 352 354 353 348 344 340 345 346 348 347 348 347 347 348 352 64 151 20 20 358 356 345 356 357 355 353 350 352 1 10 12 6 27 28 29 25 20
233 248 242 243 246 246 250 249 247 250 255 255 260 261 265 276 291 273 270 284 297 289 294 301 303 304 310 318 324 325 324 325 320 323 332 333 347 348 352 348 342 339 342 348 347 348 348 349 349 348 350 349 357 43 85 48 21 360 358 8 7 2 353 353 348 358 5 9 15 21 26 29 29 25
227 231 240 245 247 246 245 246 251 254 258 258 253 254 256 259 267 276 269 278 287 287 286 297 299 302 306 309 312 313 313 308 310 322 324 325 341 336 340 341 337 336 342 349 347 348 350 353 352 351 350 350 353 352 6 81 62 26 18 357 5 4 352 355 357 7 9 8 11 18 19 11 15 21
233 236 238 240 242 243 244 247 250 248 247 246 249 255 259 263 260 261 277 288 269 275 279 289 292 295 296 300 303 303 309 315 320 317 316 323 333 334 334 336 336 337 341 347 347 347 351 354 354 353 352 353 354 352 351 356 72 60 34 16 352 2 1 3 358 358 4 3 1 12 3 1 6 356
229 238 240 242 243 248 250 252 250 250 250 253 255 255 256 260 265 268 270 266 264 270 272 271 281 290 297 308 309 313 312 312 313 314 315 321 327 331 333 332 333 335 338 343 345 348 353 354 356 354 352 354 354 353 345 351 356 47 44 47 18 354 3 360 5 9 359 355 6 353 346 1 350 344
235 236 237 241 243 243 246 244 246 247 249 250 249 251 251 256 262 273 276 278 283 279 277 283 288 301 305 301 305 305 307 311 310 309 308 315 324 325 325 326 327 324 332 338 339 344 351 354 356 354 350 340 348 345 340 342 358 10 60 43 57 19 15 5 6 0 2 358 349 337 345 315 307 353
228 236 241 241 241 242 241 243 241 240 242 243 246 248 253 256 263 267 271 272 271 275 285 288 289 288 287 295 298 302 304 308 310 310 316 322 319 314 312 324 313 313 331 333 332 338 345 350 350 349 337 329 326 327 335 340 350 358 43 76 66 75 37 30 22 1 2 352 338 342 345 349 13 357
222 226 231 234 240 241 244 242 241 239 241 245 247 249 256 265 267 268 275 287 290 288 282 284 287 288 288 289 291 292 296 299 303 307 315 314 309 306 306 296 298 323 329 325 329 333 341 345 335 305 294 331 339 328 341 352 354 3 1 44 108 85 88 71 72 55 26 348 348 348 349 354 354 357
218 224 230 231 231 233 234 236 236 237 240 243 249 252 252 255 263 262 274 262 255 249 262 269 267 267 272 277 285 292 297 302 302 304 304 308 310 308 299 301 315 324 321 321 324 328 329 331 330 339 343 340 349 347 353 349 343 352 360 356 50 137 113 101 93 89 77 35 31 23 357 345 356 20
218 226 228 227 229 232 233 233 236 239 243 246 251 255 258 260 265 254 255 260 260 255 258 261 269 277 286 296 300 303 302 298 297 295 298 293 293 300 304 309 314 312 310 309 313 318 323 328 332 337 339 349 351 346 348 342 336 344 350 359 357 2 109 129 110 109 107 101 80 67 48 20 360 29
224 222 229 230 227 227 231 234 238 241 245 249 252 256 256 259 255 252 259 269 270 267 264 267 274 283 288 289 292 294 293 297 299 298 294 294 292 289 291 296 293 293 295 302 311 319 323 328 326 332 338 349 348 346 345 340 340 344 350 355 347 353 1 11 141 139 123 118 124 118 87 76 91 120
229 228 228 229 227 227 229 233 236 241 246 250 254 256 257 254 256 262 265 264 269 267 268 269 271 275 281 285 288 291 296 298 290 281 282 283 288 292 293 293 294 294 295 305 306 307 320 324 318 332 332 335 342 344 339 341 335 335 349 354 349 353 358 355 1 1 12 55 152 157 158 164 184 215